Location: *
(48.8667°N, 2.3331°E)
Time: 09:13:25
(UTC+00:00)

ATLAS CENTAUR R/B - Pass Details

Date: 09 April 2020
Orbit: 471 x 675 km, 64.7° (Epoch: 31 May)

Event Time Altitude Azimuth Distance (km) Brightness Sun altitude
Rises 20:15:14 0° 325° (NW) 2,707 6.2 -16.0°
Reaches altitude 10° 20:17:50 10° 340° (NNW) 1,774 4.7 -16.4°
Maximum altitude 20:21:04 24° 35° (NE) 1,097 2.8 -16.8°
Enters shadow 20:22:23 20° 66° (ENE) 1,219 2.8 -17.0°
